This is the latest recevied weather packets stored in our database for station/object KD7CIH. If no packets are shown the sender has not sent any weather packets the latest 10 day(s).
| Time | Temp. | Humidity | Pressure | Rain* | Wind** | Luminosity | Snow |
|---|---|---|---|---|---|---|---|
| 1787879407 | 23.89° C | 29% | 1017.8 hPa | 0 mm | - | - | - |
| 1787879106 | 23.89° C | 29% | 1017.8 hPa | 0 mm | - | - | - |
| 1787878808 | 24.44° C | 29% | 1018 hPa | 0 mm | - | - | - |
| 1787878507 | 24.44° C | 29% | 1017.8 hPa | 0 mm | - | - | - |
| 1787878335 | 24.44° C | 29% | 1017.8 hPa | 0 mm | - | - | - |
| 1787878034 | 24.44° C | 29% | 1018 hPa | 0 mm | - | - | - |
| 1787877607 | 24.44° C | 30% | 1018 hPa | 0 mm | - | - | - |
| 1787877307 | 23.89° C | 30% | 1018 hPa | 0 mm | - | - | - |
| 1787877009 | 24.44° C | 30% | 1018.1 hPa | 0 mm | - | - | - |
| 1787876834 | 23.89° C | 30% | 1018 hPa | 0 mm | - | - | - |
| 1787876407 | 23.89° C | 30% | 1018 hPa | 0 mm | - | - | - |
| 1787876109 | 24.44° C | 30% | 1018 hPa | 0 mm | - | - | - |
| 1787875807 | 24.44° C | 31% | 1018.1 hPa | 0 mm | - | - | - |
| 1787875634 | 24.44° C | 31% | 1018.1 hPa | 0 mm | - | - | - |
| 1787875208 | 25° C | 30% | 1018.1 hPa | 0 mm | - | - | - |
| 1787874905 | 25.56° C | 29% | 1018.2 hPa | 0 mm | - | - | - |
| 1787874731 | 26.11° C | 24% | 1018.1 hPa | 0 mm | - | - | - |
| 1787874307 | 26.67° C | 24% | 1018 hPa | 0 mm | - | - | - |
| 1787874005 | 26.67° C | 23% | 1018 hPa | 0 mm | - | - | - |
| 1787873832 | 26.67° C | 23% | 1017.8 hPa | 0 mm | - | - | - |
| 1787873407 | 27.22° C | 23% | 1017.6 hPa | 0 mm | - | - | - |
| 1787873106 | 27.78° C | 21% | 1017.6 hPa | 0 mm | - | - | - |
| 1787872805 | 27.78° C | 21% | 1017.5 hPa | 0 mm | - | - | - |
| 1787872505 | 27.78° C | 20% | 1017.5 hPa | 0 mm | - | - | - |
| 1787872206 | 27.78° C | 20% | 1017.4 hPa | 0 mm | - | - | - |
* Rain latest hour (hover to see other rain measurements)
** Current wind speed in m/s (hover to see current wind gust speed)